Location: ??????????
(54.8537°N, 38.8755°E)
Time: 20:59:32
(UTC+00:00)

Tiros 1 despin weight - Pass Details

Date: 17 September 2024
Orbit: 573 x 615 km, 48.2° (Epoch: 04 October)

Event Time Altitude Azimuth Distance (km) Brightness Sun altitude
Rises 23:17:21 0° 202° (SSW) 2,857 - -28.3°
Reaches altitude 10° 23:20:37 10° 177° (S) 1,965 - -28.1°
Maximum altitude 23:22:57 14° 146° (SE) 1,719 - -27.9°
Exits shadow 23:25:06 11° 117° (ESE) 1,937 ? -27.7°
Drops below altitude 10° 23:25:18 10° 114° (ESE) 1,978 ? -27.7°
Sets 23:28:36 0° 90° (E) 2,891 ? -27.4°
